Orbital Elements at Epoch 2459200.5 (2020-Dec-17.0) TDB
Reference: JPL 23 (heliocentric ecliptic J2000)
Element | Value | Uncertainty (1-sigma) | Units |
e | .0850272056871343 | 5.9326e-08 | |
a | 2.357198263733626 | 1.1559e-08 | au |
q | 2.156772282117791 | 1.3849e-07 | au |
i | 7.585706492096954 | 6.6601e-06 | deg |
node | 6.353582343117785 | 2.8e-05 | deg |
peri | 195.307623692223 | 3.7862e-05 | deg |
M | 95.51817442947987 | 2.3917e-05 | deg |
tp | 2458849.767421231312 (2020-Jan-01.26742123) | 8.8201e-05 | TDB |
period | 1321.881716342339 3.62 | 9.7235e-06 2.662e-08 | d yr |
n | .2723390417987805 | 2.0033e-09 | deg/d |
Q | 2.557624245349461 | 1.2542e-08 | au |
|
| | Orbit Determination Parameters
Additional Information
|